[[{"header":{"parameterUnit":"m.s-1","parameterCategory":1,"la1":30.2991,"la2":30.254,"lo1":-89.0895,"lo2":-89.0444,"dy":0.0017,"dx":0.0017,"nx":28,"ny":28,"refTime":"2024-12-31T09:00:00:Z","depth":0,"parameterNumber":2,"parameterNumberName":"U-component_of_WINDS"},"data":[0,0,0,0,0,0,0,0,0,0,0,0,0,0,0,0,0,0,0,0,0,0,0,0,0,0,0,0,0,0,0,0,0,0,0,0,0,0,0,0,0,0,0,0,0,0,0,0,0,0,0,0,0,0,0,0,0,0,3.3718,3.3719,0,3.3796,3.3797,3.3797,3.3762,3.3761,3.3759,3.3757,3.384,3.3844,3.3848,0,0,0,0,0,0,0,0,0,0,0,0,0,3.3544,3.3548,3.3718,3.3719,3.372,3.3796,3.3797,3.3798,3.3763,3.376,3.3758,3.3756,3.3839,3.3843,3.3848,0,0,0,0,0,0,0,0,0,0,0,0,0,3.3621,3.3549,3.3718,3.3711,3.3712,3.3795,3.3797,3.3798,3.3763,3.376,3.3757,3.3755,3.3837,3.3843,3.3849,3.3944,0,0,3.3867,3.387,0,0,0,0,0,0,0,0,3.3617,3.3627,3.3711,3.3712,3.3712,3.3766,3.3766,3.3847,3.3764,3.3744,3.3757,3.3753,3.3818,3.3825,3.3847,3.3948,3.3952,3.3868,3.3872,3.3874,3.3876,0,0,0,0,0,0,0,3.3611,3.3624,3.3749,3.3713,3.3713,3.3707,3.3714,3.3781,3.3796,3.3745,3.3743,3.3752,3.3818,3.3841,3.3848,3.3953,3.3868,3.3873,3.3877,3.3879,3.4141,3.4144,0,0,0,0,0,0,3.3605,3.3619,3.3746,3.3751,3.3656,3.3712,3.3721,3.3752,3.3796,3.3799,3.3755,3.3751,3.3832,3.3841,3.3851,3.3968,3.3874,3.388,3.3883,3.4138,3.4142,3.4146,0,0,0,0,0,0,3.3602,3.3617,3.3743,3.3685,3.37,3.3718,3.3754,3.3755,3.3778,3.3803,3.3806,3.3775,3.383,3.3843,3.3922,3.3971,3.3882,3.3888,3.4134,3.4139,3.4144,3.4202,0,0,0,0,0,0,3.3597,3.3616,3.3651,3.3686,3.3703,3.3811,3.3757,3.3759,3.3788,3.3783,3.3823,3.3826,3.3829,3.3913,3.3928,3.3977,3.3893,3.413,3.4136,3.4142,3.4196,3.4208,3.4219,0,0,0,0,0,3.3591,3.3664,3.3653,3.3668,3.3747,3.3814,3.3824,3.3824,3.3792,3.3829,3.3845,3.3825,3.3963,3.3922,3.3938,3.399,3.4127,3.4134,3.4142,3.4191,3.4206,3.4219,0,0,0,0,0,0,3.3635,3.3668,3.3656,3.3742,3.3776,3.3808,3.3853,3.384,3.3884,3.3878,3.3877,3.3886,3.3969,3.3987,3.3941,3.4087,3.404,3.4051,3.4072,3.4086,3.4098,3.4092,3.3898,0,0,0,0,0,3.3654,3.3704,3.3731,3.3805,3.3822,3.3835,3.3864,3.3862,3.3897,3.3911,3.3933,3.3969,3.402,3.4054,3.4103,3.4198,3.4208,3.4242,3.4254,3.4263,3.4273,3.4329,3.4345,3.417,3.417,3.417,0,0,3.3695,3.372,3.3751,3.3815,3.384,3.3894,3.3847,3.3905,3.3946,3.392,3.3997,3.4015,3.4055,3.4144,3.4184,3.4161,3.4324,3.4273,3.428,3.4285,3.4338,3.4355,3.437,3.4175,3.4175,3.4174,0,0,3.3798,3.3821,3.3886,3.3913,3.3952,3.3961,3.3977,3.4012,3.4023,3.4099,3.4082,3.4131,3.4219,3.425,3.4276,3.4395,3.4379,3.4411,3.4472,3.4526,3.454,3.4552,3.4597,3.4612,3.442,3.442,3.4421,0,3.3844,3.3923,3.3921,3.3982,3.4012,3.399,3.4058,3.4085,3.4138,3.416,3.4134,3.4246,3.4271,3.4369,3.4398,3.4419,3.444,3.4406,3.4537,3.455,3.4561,3.4604,3.4621,3.4424,3.4424,3.4423,3.4423,0,3.398,3.4036,3.4084,3.4136,3.4171,3.4235,3.4245,3.4281,3.4277,3.4289,3.437,3.44,3.4455,3.4478,3.4474,3.4576,3.4561,3.4536,3.449,3.4582,3.4622,3.4638,3.443,3.4428,3.4427,3.4426,0,0,3.4111,3.4163,3.4181,3.4206,3.425,3.4293,3.4358,3.4412,3.4444,3.4483,3.4539,3.4615,3.4593,3.4624,3.4624,3.4671,3.4766,3.4641,3.4642,3.4665,3.4885,3.4904,3.4923,3.4756,3.4759,3.4762,3.4882,0,3.4219,3.433,3.4332,3.4435,3.4489,3.4471,3.4527,3.4561,3.4575,3.4624,3.464,3.4695,3.4661,3.468,3.4726,3.4745,3.4811,3.4736,3.4811,3.4813,3.4802,3.4944,3.4964,3.5076,3.4898,3.49,3.4902,0,3.4358,3.4402,3.4511,3.455,3.4572,3.4622,3.4674,3.472,3.476,3.4767,3.4803,3.4796,3.4865,3.4816,3.4912,3.4861,3.4892,3.4907,3.4911,3.4919,3.4864,3.4957,3.5111,3.5129,3.4926,3.4924,3.4923,0,3.4446,3.4532,3.4609,3.4631,3.4677,3.4714,3.4735,3.4771,3.4805,3.4851,3.4873,3.4927,3.4956,3.4999,3.5008,3.4971,3.5106,3.5057,3.5116,3.5116,3.5146,3.5144,3.5309,3.5163,3.5163,3.5162,3.5162,0,3.4567,3.4635,3.4649,3.4697,3.4774,3.4776,3.4853,3.4872,3.4905,3.4958,3.4945,3.4996,3.5004,3.5057,3.5064,3.5145,3.5158,3.5167,3.5169,3.5169,3.5169,3.519,3.5184,3.5167,3.5166,3.5165,3.5164,0,3.4678,3.469,3.4773,3.4811,3.4822,3.4878,3.4911,3.4958,3.4971,3.5039,3.5055,3.5076,3.5138,3.5151,3.5225,3.523,3.5327,3.5319,3.5313,3.5313,3.5372,3.5367,3.5558,3.5584,3.542,3.5422,3.5423,0,3.4754,3.4807,3.4851,3.4885,3.4908,3.4963,3.4998,3.5003,3.504,3.5091,3.5133,3.5194,3.5242,3.5343,3.5366,3.5424,3.5419,3.5482,3.5427,3.5428,3.5423,3.542,3.5427,3.5493,3.5494,3.5496,3.5497,0,3.4891,3.4895,3.4944,3.4998,3.504,3.5082,3.5122,3.5151,3.5163,3.5206,3.5269,3.5307,3.5383,3.5444,3.5502,3.5526,3.5515,3.5514,3.5531,3.5533,3.5528,3.5534,3.5343,3.551,3.5508,3.5508,3.5507,3.5506,3.4988,3.5035,3.5074,3.5131,3.5162,3.5201,3.5248,3.5268,3.532,3.5382,3.5382,3.5452,3.5494,3.5571,3.5599,3.5655,3.5635,3.566,3.5666,3.5672,3.5679,3.5518,3.5665,3.5665,3.5665,3.5664,3.5664,0,3.5126,3.515,3.5203,3.526,3.5306,3.5291,3.5335,3.5375,3.5437,3.5476,3.5525,3.5599,3.566,3.5689,3.5749,3.5789,3.5786,3.5805,3.5803,3.581,3.5692,3.5672,3.5807,3.5807,3.5807,3.5807,3.5807,3.5807,3.5202,3.5282,3.5291,3.5387,3.5412,3.548,3.5507,3.5544,3.5576,3.5659,3.5709,3.5728,3.5764,3.5828,3.5884,3.5891,3.5915,3.5937,3.5942,3.5832,3.5817,3.5803,3.5785,3.5942,3.5942,3.6055,3.6057,3.6057]},{"header":{"parameterUnit":"m.s-1","parameterCategory":1,"la1":30.2991,"la2":30.254,"lo1":-89.0895,"lo2":-89.0444,"dy":0.0017,"dx":0.0017,"nx":28,"ny":28,"refTime":"2024-12-31T09:00:00:Z","depth":0,"parameterNumber":3,"parameterNumberName":"V-component_of_WINDS"},"data":[0,0,0,0,0,0,0,0,0,0,0,0,0,0,0,0,0,0,0,0,0,0,0,0,0,0,0,0,0,0,0,0,0,0,0,0,0,0,0,0,0,0,0,0,0,0,0,0,0,0,0,0,0,0,0,0,0,0,0.1481,0.1482,0,0.1556,0.1557,0.1558,0.1571,0.1571,0.157,0.157,0.1647,0.1649,0.1652,0,0,0,0,0,0,0,0,0,0,0,0,0,0.135,0.1353,0.1481,0.1482,0.1483,0.1556,0.1557,0.1558,0.1572,0.1571,0.157,0.1569,0.1646,0.1649,0.1652,0,0,0,0,0,0,0,0,0,0,0,0,0,0.1414,0.1354,0.1481,0.1499,0.1501,0.1555,0.1557,0.1558,0.1572,0.1571,0.157,0.1569,0.1645,0.1649,0.1652,0.1695,0,0,0.1664,0.1666,0,0,0,0,0,0,0,0,0.1411,0.1419,0.1495,0.1498,0.15,0.1553,0.1539,0.1604,0.1572,0.1545,0.157,0.1569,0.1616,0.1623,0.1639,0.1698,0.1702,0.1665,0.1667,0.1669,0.167,0,0,0,0,0,0,0,0.1406,0.1416,0.1511,0.1496,0.1499,0.1503,0.1511,0.1551,0.1585,0.1547,0.1548,0.1557,0.1618,0.1635,0.1641,0.1703,0.1665,0.1668,0.1671,0.1672,0.18,0.1801,0,0,0,0,0,0,0.1399,0.1412,0.1508,0.1513,0.1452,0.1506,0.1515,0.1537,0.1584,0.1591,0.1558,0.1557,0.1629,0.1636,0.1643,0.1696,0.1669,0.1673,0.1675,0.1799,0.1801,0.1802,0,0,0,0,0,0,0.1396,0.1407,0.1505,0.1463,0.1476,0.1509,0.1534,0.1539,0.1556,0.1592,0.1598,0.1569,0.1628,0.1638,0.1682,0.1699,0.1674,0.1678,0.1798,0.18,0.1801,0.1801,0,0,0,0,0,0,0.1392,0.1406,0.1423,0.1463,0.1478,0.1543,0.1535,0.1541,0.1563,0.1563,0.1605,0.1611,0.1628,0.1676,0.1686,0.1704,0.1681,0.1797,0.1799,0.1801,0.18,0.1802,0.1805,0,0,0,0,0,0.1387,0.142,0.1423,0.1435,0.1499,0.1544,0.1552,0.1571,0.1564,0.1581,0.1604,0.1609,0.1695,0.168,0.1691,0.1711,0.1796,0.1798,0.1801,0.1799,0.1802,0.1805,0,0,0,0,0,0,0.1381,0.1426,0.143,0.1477,0.1506,0.1546,0.1568,0.1574,0.1607,0.1606,0.1628,0.1638,0.168,0.17,0.1682,0.1754,0.1745,0.175,0.174,0.1743,0.1746,0.174,0.1684,0,0,0,0,0,0.1385,0.1417,0.1454,0.1492,0.1506,0.1534,0.1554,0.1567,0.1598,0.1611,0.1637,0.1668,0.1701,0.1723,0.1756,0.1802,0.1811,0.1821,0.1824,0.1825,0.1829,0.1855,0.1859,0.181,0.181,0.181,0,0,0.1393,0.1422,0.1441,0.1491,0.1515,0.1548,0.1545,0.158,0.1604,0.1616,0.1659,0.1679,0.1715,0.176,0.1781,0.1778,0.1845,0.1829,0.183,0.1833,0.1858,0.1862,0.1867,0.1811,0.1811,0.1811,0,0,0.1426,0.145,0.1484,0.1508,0.1545,0.1563,0.1571,0.161,0.1624,0.1667,0.1677,0.1706,0.1764,0.1789,0.1809,0.1849,0.1855,0.1859,0.1873,0.1897,0.1901,0.1905,0.1919,0.1924,0.1863,0.1863,0.1863,0,0.1432,0.1482,0.1501,0.1535,0.1557,0.1569,0.1603,0.1625,0.1671,0.1686,0.1681,0.1753,0.1778,0.1829,0.1839,0.1855,0.1864,0.1855,0.1899,0.1903,0.1906,0.192,0.1926,0.1863,0.1863,0.1863,0.1863,0,0.1487,0.1521,0.1544,0.1587,0.1612,0.1646,0.167,0.1692,0.1702,0.1721,0.1764,0.1794,0.1833,0.1846,0.1856,0.1898,0.1895,0.1894,0.1886,0.1911,0.1924,0.193,0.1864,0.1864,0.1863,0.1863,0,0,0.1519,0.1571,0.1579,0.1599,0.164,0.1667,0.1701,0.1739,0.1757,0.1788,0.1817,0.1865,0.1865,0.1887,0.19,0.1922,0.1951,0.1918,0.1919,0.1923,0.1999,0.2,0.2005,0.1955,0.1956,0.1957,0.1996,0,0.1556,0.1618,0.1635,0.1687,0.1719,0.173,0.176,0.1788,0.1806,0.1835,0.1855,0.1889,0.1886,0.1899,0.1921,0.1943,0.1967,0.1941,0.1983,0.1984,0.1974,0.2013,0.2013,0.2049,0.2002,0.2002,0.2003,0,0.1608,0.1639,0.1694,0.173,0.1744,0.1771,0.1806,0.1834,0.1866,0.1878,0.1903,0.1913,0.1949,0.1938,0.1988,0.197,0.1988,0.2001,0.2003,0.2008,0.1995,0.2019,0.2061,0.2066,0.2012,0.2011,0.201,0,0.1625,0.1681,0.1721,0.1737,0.178,0.1799,0.1818,0.1849,0.187,0.1901,0.1915,0.195,0.1969,0.1996,0.2016,0.2006,0.2064,0.2054,0.2074,0.2074,0.2086,0.2085,0.2132,0.2097,0.2097,0.2097,0.2097,0,0.1665,0.1698,0.1729,0.1754,0.1791,0.1811,0.1847,0.1867,0.1894,0.1922,0.1934,0.196,0.1985,0.2014,0.203,0.2068,0.2077,0.2087,0.2091,0.2086,0.2085,0.2099,0.2097,0.2099,0.2098,0.2098,0.2098,0,0.1691,0.1713,0.1757,0.1794,0.1804,0.183,0.1861,0.1886,0.1904,0.1939,0.1949,0.1977,0.2013,0.2035,0.208,0.209,0.2132,0.2135,0.2122,0.2124,0.2142,0.214,0.2199,0.2208,0.2168,0.2168,0.2168,0,0.1715,0.1741,0.178,0.18,0.1819,0.185,0.1872,0.1892,0.1915,0.1952,0.1972,0.2008,0.2038,0.2093,0.2118,0.2152,0.2156,0.2174,0.2161,0.2156,0.2156,0.2155,0.2157,0.2177,0.2177,0.2177,0.2178,0,0.1756,0.1765,0.1796,0.183,0.1855,0.1884,0.1912,0.1927,0.1952,0.1976,0.2012,0.2036,0.2081,0.2116,0.2153,0.2172,0.2179,0.2181,0.2188,0.2183,0.2174,0.2179,0.2128,0.218,0.218,0.218,0.2179,0.2179,0.1781,0.1804,0.1836,0.1869,0.1892,0.1918,0.1942,0.1963,0.1994,0.2032,0.2042,0.208,0.211,0.216,0.218,0.2209,0.2207,0.2216,0.2218,0.222,0.2221,0.2169,0.2216,0.2216,0.2216,0.2216,0.2216,0,0.1822,0.1843,0.1873,0.1912,0.1938,0.1942,0.1973,0.1995,0.2028,0.2056,0.2085,0.2126,0.216,0.2187,0.2222,0.224,0.2244,0.2249,0.2248,0.2252,0.2221,0.2212,0.2245,0.2245,0.2245,0.2245,0.2245,0.2245,0.1847,0.1886,0.1899,0.1949,0.197,0.2006,0.2024,0.2047,0.207,0.2115,0.2143,0.216,0.2188,0.2225,0.2256,0.2263,0.2276,0.228,0.2287,0.2258,0.2254,0.2251,0.2243,0.2282,0.2282,0.2316,0.2316,0.2316]}]]